LX0APE-4 Weather Reports


time (UTC)temp
C
wind
direction
speed
KPH
gust
KPH
rain 1hr
cm
rain 24hr
cm
rain mn
cm
humidity
%
barometer
mb
20260504160154 15 135 0.0 0.0 0.00 0.00 0.00 71 5009.9
20260504150713 18 157 0.0 0.0 0.00 0.00 0.00 59 5010.1
20260504150700 18 157 0.0 0.0 0.00 0.00 0.00 59 5010.1
20260504150654 18 157 0.0 0.0 0.00 0.00 0.00 59 5010.1
20260504150154 18 157 0.0 0.0 0.00 0.00 0.00 59 5010.1
20260504141154 18 157 0.0 0.0 0.00 0.00 0.00 55 5010.4
20260504140654 19 180 0.0 0.0 0.00 0.00 0.00 54 5010.6
20260504140154 19 180 0.0 0.0 0.00 0.00 0.00 54 5010.5
20260504130659 17 180 0.0 0.0 0.00 0.00 0.00 63 5010.8
20260504130654 17 180 0.0 0.0 0.00 0.00 0.00 63 5010.8
20260504130154 17 202 0.0 0.0 0.00 0.00 0.00 62 5010.9
20260504120154 17 247 0.0 0.0 0.00 0.00 0.00 63 5011.0
20260504110655 17 247 0.0 0.0 0.00 0.00 0.00 63 5011.2
20260504110155 17 247 0.0 0.0 0.00 0.00 0.00 63 5011.1
20260504100155 18 202 0.0 0.0 0.00 0.00 0.00 56 5011.5
20260504081655 17 180 0.0 0.0 0.00 0.00 0.00 57 5011.2
20260504081155 17 180 0.0 0.0 0.00 0.00 0.00 58 5011.2
20260504080655 17 225 0.0 0.0 0.00 0.00 0.00 59 5011.1
20260504080155 16 180 0.0 0.0 0.00 0.00 0.00 60 5011.1
20260504070155 14 180 0.0 0.0 0.00 0.00 0.00 66 5010.8
20260504060155 12 135 0.0 0.0 0.00 0.00 0.00 67 5010.5
20260504050655 11 157 0.0 0.0 0.00 0.00 0.00 69 5010.5
20260504050155 11 157 0.0 0.0 0.00 0.00 0.00 70 5010.5
20260504045655 11 180 0.0 0.0 0.00 0.00 0.00 70 5010.7
20260504045203 10 180 0.0 0.0 0.00 0.00 0.00 71 5010.7
20260504045159 10 180 0.0 0.0 0.00 0.00 0.00 71 5010.7
20260504045155 10 180 0.0 0.0 0.00 0.00 0.00 71 5010.7
20260504044655 10 180 0.0 0.0 0.00 0.00 0.00 71 5010.6
20260504044155 10 180 0.0 0.0 0.00 0.00 0.00 72 5010.6
20260504043700 10 180 0.0 0.0 0.00 0.00 0.00 72 5010.7
20260504043655 10 180 0.0 0.0 0.00 0.00 0.00 72 5010.7
20260504043155 10 180 0.0 0.0 0.00 0.00 0.00 72 5010.6
20260504042655 10 180 0.0 0.0 0.00 0.00 0.00 72 5010.7
20260504042155 10 180 0.0 0.0 0.00 0.00 0.00 72 5010.6
20260504041655 10 180 0.0 0.0 0.00 0.00 0.00 72 5010.6
20260504041155 10 157 0.0 0.0 0.00 0.00 0.00 72 5010.5
20260504040659 10 157 0.0 0.0 0.00 0.00 0.00 72 5010.6
20260504040655 10 157 0.0 0.0 0.00 0.00 0.00 72 5010.6
20260504040155 10 180 0.0 0.0 0.00 0.00 0.00 72 5010.5
20260504035655 10 180 0.0 0.0 0.00 0.00 0.00 72 5010.5
20260504035201 10 157 0.0 0.0 0.00 0.00 0.00 72 5010.3
20260504035155 10 157 0.0 0.0 0.00 0.00 0.00 72 5010.3
20260504034655 10 157 0.0 0.0 0.00 0.00 0.00 72 5010.6
20260504034155 10 135 0.0 0.0 0.00 0.00 0.00 72 5010.6
20260504033655 10 180 0.0 0.0 0.00 0.00 0.00 72 5010.6
20260504033155 10 180 0.0 0.0 0.00 0.00 0.00 72 5010.4
20260504032655 10 157 0.0 0.0 0.00 0.00 0.00 72 5010.7
20260504032159 10 180 0.0 0.0 0.00 0.00 0.00 72 5010.6
20260504032155 10 180 0.0 0.0 0.00 0.00 0.00 72 5010.6
20260504031655 10 180 0.0 0.0 0.00 0.00 0.00 71 5010.6
20260504031155 10 157 0.0 0.0 0.00 0.00 0.00 71 5010.6
20260504030655 10 180 0.0 0.0 0.00 0.00 0.00 70 5010.6
20260504030155 10 157 0.0 0.0 0.00 0.00 0.00 70 5010.5
20260504025655 10 135 0.0 0.0 0.00 0.00 0.00 71 5010.4
20260504025155 10 135 0.0 0.0 0.00 0.00 0.00 70 5010.5
20260504024655 10 135 0.0 0.0 0.00 0.00 0.00 70 5010.4
20260504024155 10 157 0.0 0.0 0.00 0.00 0.00 70 5010.3
20260504023700 10 135 0.0 0.0 0.00 0.00 0.00 70 5010.3
20260504023655 10 135 0.0 0.0 0.00 0.00 0.00 70 5010.3
20260504023155 10 157 0.0 0.0 0.00 0.00 0.00 70 5010.4
20260504022655 10 157 0.0 0.0 0.00 0.00 0.00 70 5010.4
20260504022155 10 157 0.0 0.0 0.00 0.00 0.00 71 5010.5
20260504021656 10 157 0.0 0.0 0.00 0.00 0.00 71 5010.5
20260504021155 10 180 0.0 0.0 0.00 0.00 0.00 70 5010.6
20260504020700 10 180 0.0 0.0 0.00 0.00 0.00 71 5010.6
20260504020656 10 180 0.0 0.0 0.00 0.00 0.00 71 5010.6
20260504020156 10 157 0.0 0.0 0.00 0.00 0.00 71 5010.6
20260504015656 10 157 0.0 0.0 0.00 0.00 0.00 71 5010.6
20260504015156 10 157 0.0 0.0 0.00 0.00 0.00 71 5010.6
20260504014656 10 157 0.0 0.0 0.00 0.00 0.00 71 5010.6
20260504014156 11 202 0.0 0.0 0.00 0.00 0.00 71 5010.6
20260504013656 10 157 0.0 0.0 0.00 0.00 0.00 71 5010.5
20260504013156 10 157 0.0 0.0 0.00 0.00 0.00 71 5010.6
20260504012656 11 157 0.0 0.0 0.00 0.00 0.00 70 5010.7
20260504012156 11 157 0.0 0.0 0.00 0.00 0.00 70 5010.6
20260504011656 11 180 0.0 0.0 0.00 0.00 0.00 70 5010.7
20260504011156 11 180 0.0 0.0 0.00 0.00 0.00 70 5010.8
20260504010700 11 180 0.0 0.0 0.00 0.00 0.00 70 5010.7
20260504010656 11 180 0.0 0.0 0.00 0.00 0.00 70 5010.7
20260504010156 11 202 0.0 0.0 0.00 0.00 0.00 70 5010.7
20260504005656 11 180 0.0 0.0 0.00 0.00 0.00 69 5010.8
20260504005156 11 180 0.0 0.0 0.00 0.00 0.00 69 5010.9
20260504004656 11 180 0.0 0.0 0.00 0.00 0.00 69 5010.7
20260504004156 11 180 0.0 0.0 0.00 0.00 0.00 69 5010.6
20260504003656 11 180 0.0 0.0 0.00 0.00 0.00 69 5010.5
20260504003156 11 202 0.0 0.0 0.00 0.00 0.00 69 5010.5
20260504002656 11 180 0.0 0.0 0.00 0.00 0.00 69 5010.5
20260504002200 11 180 0.0 0.0 0.00 0.00 0.00 69 5010.5
20260504002156 11 180 0.0 0.0 0.00 0.00 0.00 69 5010.5
20260504001656 11 135 0.0 0.0 0.00 0.00 0.00 69 5010.5
20260504001156 11 157 0.0 0.0 0.00 0.00 0.00 68 5010.5
20260504000701 11 180 0.0 0.0 0.00 0.00 0.00 68 5010.5
20260504000656 11 180 0.0 0.0 0.00 0.00 0.00 68 5010.5
20260504000156 11 180 0.0 0.0 0.00 0.00 0.00 69 5010.3
20260503235656 11 135 0.0 0.0 0.00 0.00 0.00 69 5010.4
20260503235156 11 135 0.0 0.0 0.00 0.00 0.00 69 5010.7
20260503234656 -21 135 0.0 0.0 0.00 0.00 0.00 69 5010.5
20260503234156 11 135 0.0 0.0 0.00 0.00 0.00 69 5010.5
20260503233700 11 135 0.0 0.0 0.00 0.00 0.00 70 5010.5
20260503233656 11 135 0.0 0.0 0.00 0.00 0.00 70 5010.5
20260503233156 11 112 0.0 0.0 0.00 0.00 0.00 70 5010.5
20260503232656 11 135 0.0 0.0 0.00 0.00 0.00 70 5010.5
20260503232156 11 157 0.0 0.0 0.00 0.00 0.00 70 5010.4
20260503231656 11 157 0.0 0.0 0.00 0.00 0.00 69 5010.6
20260503231156 12 157 0.0 0.0 0.00 0.00 0.00 69 5010.5
20260503230656 12 157 0.0 0.0 0.00 0.00 0.00 69 5010.5
20260503230156 12 157 0.0 0.0 0.00 0.00 0.00 70 5010.4
20260503225656 11 157 0.0 0.0 0.00 0.00 0.00 69 5010.5
20260503225156 12 157 0.0 0.0 0.00 0.00 0.00 69 5010.6
20260503224656 12 157 0.0 0.0 0.00 0.00 0.00 69 5010.6
20260503224156 12 157 0.0 0.0 0.00 0.00 0.00 68 5010.6
20260503223656 12 157 0.0 0.0 0.00 0.00 0.00 68 5010.8
20260503223156 12 157 0.0 0.0 0.00 0.00 0.00 68 5010.7
20260503222656 12 157 0.0 0.0 0.00 0.00 0.00 68 5010.6
20260503222156 12 157 0.0 0.0 0.00 0.00 0.00 68 5010.6
20260503221656 12 157 0.0 0.0 0.00 0.00 0.00 68 5010.5
20260503221156 12 157 0.0 0.0 0.00 0.00 0.00 69 5010.5
20260503220656 12 157 0.0 0.0 0.00 0.00 0.00 68 5010.5
20260503220156 12 180 0.0 0.0 0.00 0.00 0.00 68 5010.5
20260503215656 12 157 0.0 0.0 0.00 0.00 0.00 68 5010.6
20260503215156 12 157 0.0 0.0 0.00 0.00 0.00 68 5010.5
20260503214656 12 157 0.0 0.0 0.00 0.00 0.00 68 5010.5
20260503214156 12 157 0.0 0.0 0.00 0.00 0.00 68 5010.5
20260503213656 12 135 0.0 0.0 0.00 0.00 0.00 68 5010.6
20260503213156 12 157 0.0 0.0 0.00 0.00 0.00 68 5010.5
20260503212656 12 135 0.0 0.0 0.00 0.00 0.00 68 5010.5
20260503212156 12 135 0.0 0.0 0.00 0.00 0.00 67 5010.7
20260503211656 12 135 0.0 0.0 0.00 0.00 0.00 67 5010.6
20260503211156 13 135 0.0 0.0 0.00 0.00 0.00 67 5010.6
20260503210702 13 157 0.0 0.0 0.00 0.00 0.00 68 5010.4
20260503210656 13 157 0.0 0.0 0.00 0.00 0.00 68 5010.4
20260503210156 13 135 0.0 0.0 0.00 0.00 0.00 68 5010.5
20260503205656 12 135 0.0 0.0 0.00 0.00 0.00 67 5010.7
20260503205156 12 157 0.0 0.0 0.00 0.00 0.00 67 5010.6
20260503204656 12 180 0.0 0.0 0.00 0.00 0.00 67 5010.6
20260503204156 12 202 0.0 0.0 0.00 0.00 0.00 67 5010.7
20260503203656 12 202 0.0 0.0 0.00 0.00 0.00 67 5010.6
20260503203156 12 202 0.0 0.0 0.00 0.00 0.00 66 5010.5
20260503202656 13 202 0.0 0.0 0.00 0.00 0.00 66 5010.5
20260503202156 13 202 0.0 0.0 0.00 0.00 0.00 66 5010.5
20260503201656 13 202 0.0 0.0 0.00 0.00 0.00 66 5010.5
20260503201156 13 202 0.0 0.0 0.00 0.00 0.00 65 5010.5
20260503200656 13 202 0.0 0.0 0.00 0.00 0.00 65 5010.5
20260503200156 13 202 0.0 0.0 0.00 0.00 0.00 65 5010.6
20260503195656 13 202 0.0 0.0 0.00 0.00 0.00 65 5010.5
20260503195156 13 202 0.0 0.0 0.00 0.00 0.00 64 5010.5
20260503194656 14 202 0.0 0.0 0.00 0.00 0.00 64 5010.6
20260503194156 14 202 0.0 0.0 0.00 0.00 0.00 64 5010.6
20260503193656 14 202 0.0 0.0 0.00 0.00 0.00 64 5010.5
20260503193156 14 202 0.0 0.0 0.00 0.00 0.00 64 5010.6
20260503192656 14 202 0.0 0.0 0.00 0.00 0.00 64 5010.5
20260503192156 14 202 0.0 0.0 0.00 0.00 0.00 63 5010.4
20260503191656 14 180 0.0 0.0 0.00 0.00 0.00 63 5010.5
20260503191156 14 180 0.0 0.0 0.00 0.00 0.00 62 5010.4
20260503190656 15 180 0.0 0.0 0.00 0.00 0.00 61 5010.3
20260503190156 15 180 0.0 0.0 0.00 0.00 0.00 61 5010.4
20260503185656 15 157 0.0 0.0 0.00 0.00 0.00 60 5010.3
20260503185156 15 180 0.0 0.0 0.00 0.00 0.00 60 5010.3
20260503184656 15 180 0.0 0.0 0.00 0.00 0.00 59 5010.3
20260503184156 16 135 0.0 0.0 0.00 0.00 0.00 58 5010.2
20260503183702 16 180 0.0 0.0 0.00 0.00 0.00 57 5010.2
20260503183656 16 180 0.0 0.0 0.00 0.00 0.00 57 5010.2
20260503183156 17 180 0.0 0.0 0.00 0.00 0.00 56 5010.1
20260503182656 17 180 0.0 0.0 0.00 0.00 0.00 56 5010.0
20260503182200 17 202 0.0 0.0 0.00 0.00 0.00 57 5010.0
20260503182156 17 202 0.0 0.0 0.00 0.00 0.00 57 5010.0
20260503181656 17 202 0.0 0.0 0.00 0.00 0.00 58 5010.0
20260503181156 16 202 0.0 0.0 0.00 0.00 0.00 60 5010.0
20260503180656 16 225 0.0 0.0 0.00 0.00 0.00 60 5010.1
20260503180156 16 202 0.0 0.0 0.00 0.00 0.00 60 5009.9
20260503175656 16 202 0.0 0.0 0.00 0.00 0.00 61 5009.9
20260503175200 16 202 0.0 0.0 0.00 0.00 0.00 62 5009.8
20260503175156 16 202 0.0 0.0 0.00 0.00 0.00 62 5009.8
20260503174656 16 225 0.0 0.0 0.00 0.00 0.00 62 5009.9
20260503174156 16 112 0.0 0.0 0.00 0.00 0.00 62 5010.0
20260503173656 16 202 0.0 0.0 0.00 0.00 0.00 62 5009.9
20260503173156 16 135 0.0 0.0 0.00 0.00 0.00 63 5009.9
20260503172656 16 180 0.0 0.0 0.00 0.00 0.00 63 5010.0
20260503172156 16 180 0.0 0.0 0.00 0.00 0.00 64 5010.1
20260503171656 16 180 0.0 0.0 0.00 0.00 0.00 63 5010.1
20260503171156 16 157 0.0 0.0 0.00 0.00 0.00 64 5010.0
20260503170705 16 180 0.0 0.0 0.00 0.00 0.00 64 5010.0
20260503170656 16 180 0.0 0.0 0.00 0.00 0.00 64 5010.0
20260503170156 16 180 0.0 0.0 0.00 0.00 0.00 64 5010.1